Content
SEND FEEDBACK

Daily
Averages
Monthly
Summary
French Polynesia

PAPEETE, FRENCH POLYNESIA


Home > Oceania > French Polynesia
Elevation: 7 feet     Latitude: 17 33S     Longitude: 149 36W

WEATHER
 
SELECT A DAY
Number of Records: 208,079;   Date Range: 6/30/96 - 7/20/14
 
SHARE

PRINT THIS DATA

[ ← Previous Day ]
WEATHER ALMANAC - MAY 17, 2013
[ Next Day → ]
[ °C ]   °F
Weather ElementAverageHighLow
Temperature81.6 °F87.8 °F (1:30 pm)77 °F (12:30 am)
Dewpoint71.9 °F73.4 °F (8:00 am)69.8 °F (12:30 am)
Humidity71.6 %83 % (4:00 am)51 % (2:00 pm)
Barometer29.96 in30.02 in (8:00 am)29.89 in (3:00 pm)
Wind Speed4.6 mph13.4 mph (2:00 pm)
Weather ElementAverage
Visibility7.2 mi
Wind DirectionSE (134.1 °)

Weather ElementTotal
Precipitation---
Cooling Degree Days17.4 (Base 65)
Growing Degree Days32.4 (Base 50)
Averaged from 55 records on May 17, 2013
WEATHER CONDITIONS BREAKOUT
WIND DIRECTION BREAKOUT
WEATHER BY HOUR - MAY 17, 2013
[ °C ]   °F
Local TimeTemperatureDewpointHumidityBarometerVisibilityWind DirectionWind SpeedGust SpeedPrecipitationEventsConditions
12:30 AM77.0 °F69.8 °F78 %29.98 in6.2 miVariable2.3 mphPartly Cloudy
1:00 AM77.0 °F69.8 °F78 %29.98 in6.2 miVariable1.2 mphPartly Cloudy
1:30 AM77.0 °F69.8 °F78 %29.98 in6.2 miSouth (190°)2.3 mphPartly Cloudy
2:00 AM77.0 °F70.0 °F73 %29.97 in12.0 miSE (140°)4.5 mphScattered Clouds
2:00 AM77.0 °F69.8 °F78 %29.95 in6.2 miVariable2.3 mphPartly Cloudy
2:30 AM77.0 °F69.8 °F78 %29.95 in6.2 miSouth (170°)3.5 mphPartly Cloudy
3:00 AM77.0 °F69.8 °F78 %29.95 in6.2 miEast (80°)3.5 mphPartly Cloudy
3:30 AM77.0 °F69.8 °F78 %29.95 in6.2 miVariable1.2 mphPartly Cloudy
4:00 AM77.0 °F71.6 °F83 %29.95 in6.2 miCalmPartly Cloudy
4:30 AM77.0 °F69.8 °F78 %29.95 in6.2 miSSE (160°)3.5 mphPartly Cloudy
5:00 AM78.0 °F71.0 °F75 %29.97 in22.0 miSSE (160°)5.8 mphClear
5:00 AM77.0 °F71.6 °F83 %29.95 in6.2 miSSE (160°)5.8 mphMostly Cloudy
5:30 AM77.0 °F71.6 °F83 %29.98 in6.2 miNE (50°)2.3 mphMostly Cloudy
6:00 AM77.0 °F71.6 °F83 %29.98 in6.2 miENE (60°)4.6 mphScattered Clouds
6:30 AM77.0 °F71.6 °F83 %29.98 in6.2 miVariable3.5 mphScattered Clouds
7:00 AM77.0 °F71.6 °F83 %29.98 in6.2 miEast (90°)3.5 mphPartly Cloudy
7:30 AM78.8 °F71.6 °F78 %30.01 in6.2 miVariable2.3 mphPartly Cloudy
8:00 AM81.0 °F73.0 °F71 %30.02 in12.0 miCalmPartly Cloudy
8:00 AM80.6 °F73.4 °F79 %30.01 in6.2 miCalmPartly Cloudy
8:30 AM82.4 °F73.4 °F74 %30.01 in6.2 miSW (220°)1.2 mphPartly Cloudy
9:00 AM84.2 °F73.4 °F70 %30.01 in6.2 miSSW (200°)5.8 mphPartly Cloudy
9:30 AM84.2 °F73.4 °F70 %30.01 in6.2 miSW (220°)6.9 mphPartly Cloudy
10:00 AM84.2 °F73.4 °F70 %30.01 in6.2 miSW (220°)6.9 mphPartly Cloudy
10:30 AM86.0 °F73.4 °F66 %30.01 in6.2 miSSW (210°)10.4 mphPartly Cloudy
11:00 AM86.0 °F73.0 °F58 %30.00 in12.0 miSW (220°)8.1 mphScattered Clouds
11:00 AM86.0 °F73.4 °F66 %29.98 in6.2 miSW (220°)8.1 mphPartly Cloudy
11:30 AM86.0 °F73.4 °F66 %29.98 in6.2 miSW (220°)8.1 mphPartly Cloudy
12:00 PM86.0 °F73.4 °F66 %29.98 in6.2 miSW (230°)6.9 mphPartly Cloudy
12:30 PM86.0 °F73.4 °F66 %29.95 in6.2 miWSW (240°)5.8 mphPartly Cloudy
1:00 PM86.0 °F73.4 °F66 %29.95 in6.2 miWSW (240°)6.9 mphPartly Cloudy
1:30 PM87.8 °F71.6 °F58 %29.92 in6.2 miSW (230°)6.9 mphPartly Cloudy
2:00 PM87.0 °F71.0 °F51 %29.93 in12.0 miSW (220°)13.4 mphScattered Clouds
2:00 PM87.8 °F71.6 °F58 %29.92 in6.2 miSW (220°)6.9 mphPartly Cloudy
2:30 PM87.8 °F69.8 °F55 %29.92 in6.2 miSW (220°)5.8 mphPartly Cloudy
3:00 PM87.8 °F73.4 °F62 %29.89 in6.2 miWSW (240°)4.6 mphPartly Cloudy
3:30 PM87.8 °F71.6 °F58 %29.89 in6.2 miSW (220°)6.9 mphPartly Cloudy
4:00 PM86.0 °F73.4 °F66 %29.89 in6.2 miSSW (210°)6.9 mphPartly Cloudy
4:30 PM86.0 °F71.6 °F62 %29.92 in6.2 miSSW (200°)3.5 mphPartly Cloudy
5:00 PM85.0 °F72.0 °F58 %29.92 in12.0 miSW (230°)6.9 mphScattered Clouds
5:00 PM84.2 °F71.6 °F66 %29.92 in6.2 miSW (230°)6.9 mphPartly Cloudy
5:30 PM84.2 °F73.4 °F70 %29.92 in6.2 miSSW (210°)4.6 mphPartly Cloudy
6:00 PM84.2 °F73.4 °F70 %29.92 in6.2 miSSW (200°)6.9 mphScattered Clouds
6:30 PM82.4 °F73.4 °F74 %29.95 in6.2 miSSE (150°)4.6 mphPartly Cloudy
7:00 PM82.4 °F71.6 °F70 %29.95 in6.2 miVariable2.3 mphScattered Clouds
7:30 PM82.4 °F71.6 °F70 %29.98 in6.2 miVariable2.3 mphPartly Cloudy
8:00 PM81.0 °F72.0 °F68 %29.98 in12.0 miSouth (170°)4.6 mphScattered Clouds
8:00 PM80.6 °F71.6 °F74 %29.98 in6.2 miSouth (170°)4.6 mphPartly Cloudy
8:30 PM80.6 °F71.6 °F74 %29.98 in6.2 miSE (130°)3.5 mphPartly Cloudy
9:00 PM80.6 °F71.6 °F74 %29.98 in6.2 miVariable3.5 mphPartly Cloudy
9:30 PM80.6 °F71.6 °F74 %29.98 in6.2 miVariable3.5 mphPartly Cloudy
10:00 PM78.8 °F71.6 °F78 %29.98 in6.2 miVariable3.5 mphPartly Cloudy
10:30 PM78.8 °F71.6 °F78 %29.98 in6.2 miVariable3.5 mphPartly Cloudy
11:00 PM78.0 °F72.0 °F77 %29.97 in12.0 miSE (140°)3.5 mphScattered Clouds
11:00 PM78.8 °F71.6 °F78 %29.95 in6.2 miVariable3.5 mphPartly Cloudy
11:30 PM78.8 °F71.6 °F78 %29.95 in6.2 miSSE (150°)3.5 mphPartly Cloudy
Hourly data recorded from NTAA, located miles away from Papeete, French Polynesia







STORIES FROM OUR PARTNERS